Location: Corcelles
(46.1547°N, 4.7234°E)
Time: 10:45:53
(UTC+00:00)

AQUA - Pass Details

Date: 14 July 2020
Orbit: 701 x 703 km, 98.2° (Epoch: 05 August)

Event Time Altitude Azimuth Distance (km) Brightness Sun altitude
Rises 01:26:57 0° 16° (NNE) 3,103 8.8 -18.5°
Reaches altitude 10° 01:29:15 10° 20° (NNE) 2,180 7.6 -18.4°
Maximum altitude 01:33:59 63° 102° (ESE) 789 4.1 -18.0°
Enters shadow 01:36:23 28° 174° (S) 1,298 4.7 -17.8°
